User: anonymous   Login
Location: Foligno
(42.9600°N, 12.7050°E)
Time: 07:43:01
(UTC+02:00)
Language:

ISS - Orbit

View from above orbital plane
View from above orbital plane
View from above satellite
View from above satellite

Ground track
Ground track

The orbit data is extracted from the following two-line orbital elements,

1 25544U 98067A   21128.89021443  .00000542  00000-0  17997-4 0  9993
2 25544  51.6447 177.0935 0002840 336.0713 195.7166 15.48985458282507
Epoch (UTC): 08 May 2021 21:21:54
Eccentricity: 0.0002840
inclination: 51.6447°
perigee height: 418 km
apogee height: 421 km
right ascension of ascending node: 177.0935°
argument of perigee: 336.0713°
revolutions per day: 15.48985458
mean anomaly at epoch: 195.7166°
orbit number at epoch: 28250

The dashed part of the orbit path shows where the satellite is in the earth's shadow,  

DLR